FW7063 Weather Reports


time (UTC)temp
F
wind
direction
speed
knots
gust
knots
rain 1hr
in
rain 24hr
in
rain mn
in
humidity
%
barometer
mb
20260510113603 55 92 5.2 7.0 0.00 0.00 0.00 67 1015.9
20260510113103 55 115 2.6 7.0 0.00 0.00 0.00 68 1015.9
20260510112603 55 115 2.6 7.8 0.00 0.00 0.00 68 1015.6
20260510112103 55 95 0.9 7.0 0.00 0.00 0.00 68 1016.3
20260510111609 55 52 4.3 8.7 0.00 0.00 0.00 68 1016.3
20260510111103 55 123 5.2 9.6 0.00 0.00 0.00 68 1016.3
20260510110603 55 268 2.6 7.8 0.00 0.00 0.00 68 1016.3
20260510110103 55 325 3.5 7.0 0.00 0.00 0.00 68 1015.9
20260510105603 55 31 0.9 6.1 0.00 0.00 0.00 68 1016.3
20260510105103 55 63 4.3 7.8 0.00 0.00 0.00 68 1016.3
20260510104605 55 76 7.8 12.2 0.00 0.00 0.00 68 1016.3
20260510104104 55 47 0.9 4.3 0.00 0.00 0.00 68 1016.3
20260510103603 54 53 0.9 5.2 0.00 0.00 0.00 68 1016.3
20260510103103 54 231 1.7 7.8 0.00 0.00 0.00 68 1016.6
20260510102603 54 10 4.3 8.7 0.00 0.00 0.00 68 1016.3
20260510102103 54 105 0.9 4.3 0.00 0.00 0.00 68 1016.6
20260510101603 54 157 1.7 8.7 0.00 0.00 0.00 68 1016.3
20260510101103 54 100 4.3 5.2 0.00 0.00 0.00 68 1016.3
20260510100603 54 33 0.9 8.7 0.00 0.00 0.00 68 1016.3
20260510095603 54 63 0.9 7.8 0.00 0.00 0.00 70 1016.3
20260510095103 53 357 1.7 5.2 0.00 0.00 0.00 69 1016.3
20260510094603 53 94 1.7 6.1 0.00 0.00 0.00 69 1016.3
20260510094103 53 66 1.7 7.0 0.00 0.00 0.00 69 1016.3
20260510093605 53 74 1.7 6.1 0.00 0.00 0.00 69 1016.3
20260510093103 53 108 3.5 7.0 0.00 0.00 0.00 70 1016.3
20260510092603 53 352 1.7 2.6 0.00 0.00 0.00 70 1016.6
20260510092104 53 52 0.9 6.1 0.00 0.00 0.00 71 1016.6
20260510091603 53 27 1.7 4.3 0.00 0.00 0.00 70 1016.3
20260510091104 53 92 2.6 4.3 0.00 0.00 0.00 71 1016.6
20260510090603 53 44 7.8 11.3 0.00 0.00 0.00 70 1016.6
20260510085604 53 197 2.6 7.8 0.00 0.00 0.00 71 1016.3
20260510085103 53 343 3.5 8.7 0.00 0.00 0.00 71 1016.3
20260510084603 53 96 3.5 9.6 0.00 0.00 0.00 71 1016.6
20260510084103 53 91 4.3 12.2 0.00 0.00 0.00 71 1016.9
20260510083603 53 3 3.5 8.7 0.00 0.00 0.00 71 1016.6
20260510083103 53 99 1.7 8.7 0.00 0.00 0.00 72 1016.6
20260510082603 53 138 3.5 5.2 0.00 0.00 0.00 72 1016.9
20260510082103 53 103 2.6 7.8 0.00 0.00 0.00 73 1016.6
20260510081603 53 99 3.5 7.0 0.00 0.00 0.00 73 1016.9
20260510081103 52 29 1.7 4.3 0.00 0.00 0.00 73 1016.6
20260510080604 52 22 2.6 7.8 0.00 0.00 0.00 73 1016.6
20260510080103 52 65 3.5 5.2 0.00 0.00 0.00 74 1016.9
20260510075604 52 54 2.6 5.2 0.00 0.00 0.00 74 1016.6
20260510075103 52 103 2.6 6.1 0.00 0.00 0.00 74 1016.6
20260510074603 52 97 2.6 7.0 0.00 0.00 0.00 74 1016.6
20260510074103 51 38 1.7 2.6 0.00 0.00 0.00 75 1016.6
20260510073604 51 38 2.6 6.1 0.00 0.00 0.00 75 1016.6
20260510073104 51 18 4.3 7.0 0.00 0.00 0.00 75 1016.9
20260510072603 51 26 4.3 8.7 0.00 0.00 0.00 75 1016.9
20260510072103 51 136 1.7 5.2 0.00 0.00 0.00 76 1016.9
20260510071603 51 123 3.5 6.1 0.00 0.00 0.00 75 1016.6
20260510071104 51 83 0.9 4.3 0.00 0.00 0.00 76 1016.6
20260510070603 51 98 2.6 5.2 0.00 0.00 0.00 76 1016.6
20260510070103 50 327 1.7 6.1 0.00 0.00 0.00 77 1016.9
20260510065602 50 32 2.6 5.2 0.00 0.00 0.00 77 1016.9
20260510065103 51 50 2.6 6.1 0.00 0.00 0.00 77 1016.6
20260510064604 50 89 2.6 4.3 0.00 0.00 0.00 77 1016.9
20260510064103 50 63 1.7 5.2 0.00 0.00 0.00 77 1016.6
20260510063603 50 88 1.7 1.7 0.00 0.00 0.00 77 1016.9
20260510063103 50 62 0.9 5.2 0.00 0.00 0.00 78 1016.9
20260510062603 50 89 2.6 4.3 0.00 0.00 0.00 78 1016.9
20260510062103 50 64 0.9 5.2 0.00 0.00 0.00 79 1016.9
20260510061603 50 75 0.9 5.2 0.00 0.00 0.00 79 1016.6
20260510061103 50 73 0.9 5.2 0.00 0.00 0.00 79 1016.6
20260510060604 49 51 0.9 4.3 0.00 0.00 0.00 79 1016.6
20260510055604 49 89 3.5 5.2 0.00 0.00 0.00 80 1016.6
20260510055103 49 24 1.7 5.2 0.00 0.00 0.00 81 1016.6
20260510054603 49 23 1.7 4.3 0.00 0.00 0.00 81 1016.6
20260510054103 49 99 2.6 7.8 0.00 0.00 0.00 81 1016.3
20260510053603 49 148 1.7 8.7 0.00 0.00 0.00 81 1016.6
20260510053104 49 316 0.9 1.7 0.00 0.00 0.00 81 1016.3
20260510052603 49 329 0.9 4.3 0.00 0.00 0.00 82 1016.3
20260510052110 49 347 1.7 2.6 0.00 0.00 0.00 82 1016.3
20260510051606 49 42 2.6 4.3 0.00 0.00 0.00 82 1016.6
20260510051103 49 48 1.7 6.1 0.00 0.00 0.00 82 1016.3
20260510050603 49 305 0.9 2.6 0.00 0.00 0.00 82 1016.3
20260510050104 49 134 1.7 4.3 0.00 0.00 0.00 82 1016.3
20260510045603 49 147 0.9 6.1 0.00 0.00 0.00 82 1016.3
20260510045103 49 60 2.6 5.2 0.00 0.00 0.00 82 1016.6
20260510044603 49 34 2.6 4.3 0.00 0.00 0.00 82 1016.3
20260510044103 48 73 2.6 4.3 0.00 0.00 0.00 82 1016.3
20260510043603 48 344 0.9 4.3 0.00 0.00 0.00 82 1016.3
20260510043103 48 95 1.7 5.2 0.00 0.00 0.00 82 1016.3
20260510042604 48 318 1.7 5.2 0.00 0.00 0.00 82 1016.3
20260510042103 48 46 0.9 4.3 0.00 0.00 0.00 82 1016.6
20260510041603 48 297 2.6 7.8 0.00 0.00 0.00 82 1016.6
20260510041103 48 356 0.9 6.1 0.00 0.00 0.00 82 1016.6
20260510040604 48 160 1.7 4.3 0.00 0.00 0.00 82 1016.6
20260510040104 48 40 3.5 5.2 0.00 0.00 0.00 82 1016.6
20260510035603 48 106 2.6 6.1 0.00 0.00 0.00 82 1016.3
20260510035104 48 100 2.6 4.3 0.00 0.00 0.00 82 1016.9
20260510034603 48 92 5.2 7.8 0.00 0.00 0.00 81 1016.6
20260510034103 48 91 0.9 7.0 0.00 0.00 0.00 81 1016.6
20260510033603 48 90 2.6 6.1 0.00 0.00 0.00 80 1016.9
20260510033103 48 340 4.3 7.0 0.00 0.00 0.00 81 1016.6
20260510032603 49 97 2.6 6.1 0.00 0.00 0.00 80 1016.6
20260510032103 49 11 0.9 4.3 0.00 0.00 0.00 80 1016.6
20260510031603 49 85 4.3 7.0 0.00 0.00 0.00 80 1016.6
20260510031103 49 32 1.7 7.8 0.00 0.00 0.00 79 1016.9
20260510030604 49 136 1.7 4.3 0.00 0.00 0.00 79 1016.9
20260510030104 49 13 2.6 4.3 0.00 0.00 0.00 79 1016.9
20260510025603 49 256 3.5 5.2 0.00 0.00 0.00 79 1016.9
20260510025104 49 64 3.5 8.7 0.00 0.00 0.00 78 1016.6
20260510024603 49 76 3.5 5.2 0.00 0.00 0.00 77 1016.6
20260510024103 49 51 2.6 5.2 0.00 0.00 0.00 76 1016.9
20260510023603 50 1 1.7 6.1 0.00 0.00 0.00 76 1016.6
20260510023103 50 75 2.6 4.3 0.00 0.00 0.00 76 1016.9
20260510022603 50 20 1.7 4.3 0.00 0.00 0.00 76 1016.9
20260510022103 50 57 0.9 5.2 0.00 0.00 0.00 75 1016.6
20260510021604 50 83 3.5 6.1 0.00 0.00 0.00 75 1016.6
20260510021103 50 30 0.9 4.3 0.00 0.00 0.00 75 1016.9
20260510020604 50 66 1.7 4.3 0.00 0.00 0.00 74 1016.6
20260510015604 50 73 0.9 1.7 0.00 0.00 0.00 72 1016.6
20260510015103 50 39 1.7 2.6 0.00 0.00 0.00 72 1016.9
20260510014603 50 317 2.6 4.3 0.00 0.00 0.00 71 1016.6
20260510014103 50 356 1.7 1.7 0.00 0.00 0.00 71 1016.9
20260510013603 51 73 0.9 2.6 0.00 0.00 0.00 71 1016.6
20260510013103 51 58 0.9 1.7 0.00 0.00 0.00 71 1016.6
20260510012603 51 31 2.6 4.3 0.00 0.00 0.00 71 1016.9
20260510012104 51 30 0.9 2.6 0.00 0.00 0.00 70 1016.9
20260510011603 51 15 0.9 1.7 0.00 0.00 0.00 69 1016.9
20260510011104 51 192 0.0 7.8 0.00 0.00 0.00 70 1016.9
20260510010603 51 48 0.9 2.6 0.00 0.00 0.00 70 1016.9
20260510010103 51 89 0.9 2.6 0.00 0.00 0.00 70 1016.9
20260510005603 51 62 0.9 0.9 0.00 0.00 0.00 69 1016.9
20260510005103 51 80 0.0 1.7 0.00 0.00 0.00 69 1016.9
20260510004604 51 72 0.9 2.6 0.00 0.00 0.00 70 1016.9
20260510004104 51 69 0.9 2.6 0.00 0.00 0.00 69 1016.9
20260510003603 51 77 0.9 7.0 0.00 0.00 0.00 69 1016.9
20260510003104 51 88 1.7 4.3 0.00 0.00 0.00 68 1016.9
20260510002604 51 110 1.7 2.6 0.00 0.00 0.00 67 1016.6
20260510002103 51 92 0.9 2.6 0.00 0.00 0.00 67 1016.9
20260510001603 52 59 0.9 4.3 0.00 0.00 0.00 66 1016.9
20260510001103 52 83 0.0 1.7 0.00 0.00 0.00 66 1016.6
20260510000603 52 75 0.9 2.6 0.00 0.00 0.00 65 1016.6
20260510000103 52 94 1.7 2.6 0.00 0.00 0.00 65 1016.9
20260509235603 52 96 1.7 1.7 0.00 0.00 0.00 64 1016.9
20260509235103 52 87 0.9 6.1 0.00 0.00 0.00 64 1016.6
20260509234603 53 85 0.0 5.2 0.00 0.00 0.00 63 1016.9
20260509234103 53 46 2.6 6.1 0.00 0.00 0.00 63 1016.6
20260509233603 53 203 0.9 5.2 0.00 0.00 0.00 63 1016.6
20260509233104 53 73 2.6 4.3 0.00 0.00 0.00 62 1016.9
20260509232603 53 76 0.9 2.6 0.00 0.00 0.00 61 1016.9
20260509232103 53 66 1.7 6.1 0.00 0.00 0.00 62 1016.6
20260509231603 53 116 0.9 2.6 0.00 0.00 0.00 61 1016.6
20260509231104 53 85 0.0 0.9 0.00 0.00 0.00 61 1016.9
20260509230603 53 108 0.9 1.7 0.00 0.00 0.00 61 1016.6
20260509230103 53 77 0.0 0.9 0.00 0.00 0.00 61 1016.6
20260509225603 53 90 2.6 4.3 0.00 0.00 0.00 60 1016.6
20260509225103 53 76 0.0 0.9 0.00 0.00 0.00 60 1016.6
20260509224603 53 86 0.0 0.9 0.00 0.00 0.00 60 1016.9
20260509224103 53 87 1.7 4.3 0.00 0.00 0.00 60 1016.9
20260509223603 53 91 0.0 1.7 0.00 0.00 0.00 59 1016.6
20260509223103 53 126 2.6 5.2 0.00 0.00 0.00 58 1016.9
20260509222603 53 96 0.0 0.9 0.00 0.00 0.00 58 1016.9
20260509222104 53 85 0.0 0.9 0.00 0.00 0.00 58 1016.6
20260509221603 53 94 0.0 1.7 0.00 0.00 0.00 58 1016.6
20260509221103 53 89 0.9 4.3 0.00 0.00 0.00 57 1016.3
20260509220603 53 91 0.9 0.9 0.00 0.00 0.00 56 1016.6
20260509215603 54 79 0.9 1.7 0.00 0.00 0.00 55 1016.6
20260509215103 54 79 1.7 1.7 0.00 0.00 0.00 54 1016.6
20260509214603 54 108 0.9 4.3 0.00 0.00 0.00 53 1016.6
20260509214104 54 83 0.0 4.3 0.00 0.00 0.00 53 1016.6
20260509213603 54 101 0.9 1.7 0.00 0.00 0.00 53 1016.9
20260509213103 54 68 0.0 5.2 0.00 0.00 0.00 52 1016.6
20260509212603 54 86 0.0 1.7 0.00 0.00 0.00 51 1016.6
20260509212103 54 95 0.9 6.1 0.00 0.00 0.00 50 1016.6
20260509211603 54 95 0.0 1.7 0.00 0.00 0.00 49 1016.6
20260509211104 55 90 0.9 1.7 0.00 0.00 0.00 49 1016.9
20260509210603 55 53 2.6 2.6 0.00 0.00 0.00 48 1016.3
20260509210106 55 80 0.9 1.7 0.00 0.00 0.00 48 1016.6
20260509205603 55 87 0.9 1.7 0.00 0.00 0.00 47 1016.6
20260509205103 55 81 0.9 1.7 0.00 0.00 0.00 46 1016.3
20260509204604 56 75 0.9 2.6 0.00 0.00 0.00 46 1016.6
20260509204103 56 82 0.0 1.7 0.00 0.00 0.00 45 1016.3
20260509203604 56 78 0.9 5.2 0.00 0.00 0.00 46 1016.6
20260509203103 56 76 0.0 2.6 0.00 0.00 0.00 46 1016.3
20260509202603 56 73 1.7 4.3 0.00 0.00 0.00 45 1016.3
20260509202104 57 96 1.7 2.6 0.00 0.00 0.00 46 1016.3
20260509201603 57 57 1.7 4.3 0.00 0.00 0.00 46 1016.3
20260509201103 57 96 0.9 2.6 0.00 0.00 0.00 46 1016.3
20260509200603 57 74 3.5 5.2 0.00 0.00 0.00 46 1015.9
20260509200103 57 38 2.6 4.3 0.00 0.00 0.00 46 1015.9
20260509195604 57 106 0.9 5.2 0.00 0.00 0.00 46 1015.9
20260509195103 58 243 2.6 6.1 0.00 0.00 0.00 46 1015.9
20260509194604 58 86 0.9 5.2 0.00 0.00 0.00 46 1015.9
20260509194103 58 86 0.9 1.7 0.00 0.00 0.00 47 1016.3
20260509193603 58 108 0.9 5.2 0.00 0.00 0.00 47 1015.9
20260509193103 59 119 1.7 2.6 0.00 0.00 0.00 48 1015.9
20260509192603 59 87 0.9 0.9 0.00 0.00 0.00 48 1015.9
20260509192104 59 69 0.9 2.6 0.00 0.00 0.00 48 1015.9
20260509191603 59 79 0.9 2.6 0.00 0.00 0.00 47 1015.9
20260509191103 59 80 0.9 2.6 0.00 0.00 0.00 47 1015.6
20260509190603 60 85 0.9 1.7 0.00 0.00 0.00 46 1015.6
20260509185603 60 79 0.9 4.3 0.00 0.00 0.00 45 1015.9
20260509185103 60 89 0.9 2.6 0.00 0.00 0.00 45 1015.9
20260509184603 60 97 2.6 5.2 0.00 0.00 0.00 45 1015.6
20260509184103 61 160 5.2 6.1 0.00 0.00 0.00 47 1015.6
20260509183604 61 290 0.9 2.6 0.00 0.00 0.00 47 1015.6
20260509183103 61 108 0.9 7.0 0.00 0.00 0.00 47 1015.6
20260509182603 62 100 0.0 5.2 0.00 0.00 0.00 47 1015.6
20260509182103 62 62 0.9 6.1 0.00 0.00 0.00 47 1015.2
20260509181604 62 117 0.0 1.7 0.00 0.00 0.00 46 1015.6
20260509181104 62 84 1.7 7.0 0.00 0.00 0.00 45 1015.6
20260509180603 63 115 0.9 6.1 0.00 0.00 0.00 45 1015.6
20260509180103 63 42 3.5 6.1 0.00 0.00 0.00 45 1015.2
20260509175605 63 186 2.6 5.2 0.00 0.00 0.00 44 1015.2
20260509175104 63 89 3.5 6.1 0.00 0.00 0.00 44 1015.2
20260509174603 64 39 0.9 6.1 0.00 0.00 0.00 44 1015.2
20260509174103 64 241 1.7 6.1 0.00 0.00 0.00 42 1015.6
20260509173603 64 64 2.6 7.0 0.00 0.00 0.00 42 1015.2
20260509173109 65 57 6.1 7.8 0.00 0.00 0.00 42 1015.2
20260509172603 66 96 5.2 9.6 0.00 0.00 0.00 43 1015.2
20260509172103 66 211 0.9 7.0 0.00 0.00 0.00 42 1015.2
20260509171604 66 13 1.7 4.3 0.00 0.00 0.00 42 1015.2
20260509171104 66 345 2.6 5.2 0.00 0.00 0.00 42 1015.6
20260509170604 66 163 1.7 7.0 0.00 0.00 0.00 42 1015.2
20260509170104 66 58 3.5 6.1 0.00 0.00 0.00 44 1015.2
20260509165604 66 109 1.7 6.1 0.00 0.00 0.00 43 1015.2
20260509165103 66 105 2.6 5.2 0.00 0.00 0.00 44 1014.9
20260509164604 66 87 3.5 4.3 0.00 0.00 0.00 44 1015.2
20260509164104 66 80 0.9 2.6 0.00 0.00 0.00 44 1015.2
20260509163604 67 45 1.7 5.2 0.00 0.00 0.00 43 1014.9
20260509163103 67 85 4.3 11.3 0.00 0.00 0.00 42 1015.2
20260509162603 68 81 2.6 7.0 0.00 0.00 0.00 43 1014.9
20260509162103 68 80 2.6 8.7 0.00 0.00 0.00 41 1014.9
20260509161603 69 212 1.7 4.3 0.00 0.00 0.00 42 1014.9
20260509161104 69 56 2.6 2.6 0.00 0.00 0.00 41 1014.9
20260509160603 69 206 4.3 6.1 0.00 0.00 0.00 42 1015.2
20260509160103 69 50 4.3 7.0 0.00 0.00 0.00 41 1014.9
20260509155603 69 187 3.5 7.8 0.00 0.00 0.00 43 1014.9
20260509155103 69 102 1.7 5.2 0.00 0.00 0.00 42 1015.2
20260509154603 69 240 3.5 12.2 0.00 0.00 0.00 42 1015.2
20260509154103 69 140 0.9 1.7 0.00 0.00 0.00 42 1014.9
20260509153603 69 60 4.3 7.0 0.00 0.00 0.00 41 1015.2
20260509153103 69 93 2.6 5.2 0.00 0.00 0.00 42 1015.2
20260509152603 69 67 1.7 4.3 0.00 0.00 0.00 42 1015.2
20260509152104 70 125 1.7 4.3 0.00 0.00 0.00 41 1015.2
20260509151603 70 304 0.9 5.2 0.00 0.00 0.00 41 1015.6
20260509151103 70 59 0.9 4.3 0.00 0.00 0.00 41 1015.2
20260509150603 71 131 2.6 7.0 0.00 0.00 0.00 41 1015.2
20260509150104 71 106 1.7 7.0 0.00 0.00 0.00 41 1015.2
20260509145604 70 166 6.1 7.8 0.00 0.00 0.00 43 1015.6
20260509145104 70 206 0.9 6.1 0.00 0.00 0.00 40 1015.2
20260509144603 70 31 0.9 4.3 0.00 0.00 0.00 41 1015.2
20260509144103 70 130 2.6 7.8 0.00 0.00 0.00 41 1015.2
20260509143603 70 119 2.6 5.2 0.00 0.00 0.00 40 1015.2
20260509143103 70 253 0.9 4.3 0.00 0.00 0.00 43 1015.2
20260509142605 70 184 2.6 7.0 0.00 0.00 0.00 42 1015.2
20260509142103 69 49 2.6 6.1 0.00 0.00 0.00 42 1015.2
20260509141603 69 92 2.6 7.0 0.00 0.00 0.00 42 1014.9
20260509141103 69 291 2.6 4.3 0.00 0.00 0.00 42 1015.2
20260509140603 69 172 2.6 7.0 0.00 0.00 0.00 42 1014.9
20260509140103 69 350 3.5 5.2 0.00 0.00 0.00 43 1015.2
20260509135604 69 12 1.7 4.3 0.00 0.00 0.00 42 1014.9
20260509135104 69 160 2.6 2.6 0.00 0.00 0.00 42 1015.2
20260509134603 69 163 5.2 8.7 0.00 0.00 0.00 44 1015.2
20260509134103 69 78 3.5 7.0 0.00 0.00 0.00 42 1015.2
20260509133603 68 101 2.6 4.3 0.00 0.00 0.00 43 1015.2
20260509133104 68 308 3.5 6.1 0.00 0.00 0.00 44 1015.2
20260509132603 68 149 0.0 7.0 0.00 0.00 0.00 44 1015.2
20260509132103 68 98 1.7 4.3 0.00 0.00 0.00 43 1015.2
20260509131603 68 108 1.7 2.6 0.00 0.00 0.00 46 1015.2
20260509131103 68 256 2.6 7.0 0.00 0.00 0.00 46 1015.2
20260509130603 68 72 2.6 5.2 0.00 0.00 0.00 45 1015.2
20260509125603 68 234 2.6 7.0 0.00 0.00 0.00 47 1015.2
20260509125103 68 302 0.9 2.6 0.00 0.00 0.00 46 1015.6
20260509124603 68 300 2.6 7.0 0.00 0.00 0.00 48 1015.6
20260509124103 67 59 2.6 6.1 0.00 0.00 0.00 47 1015.6
20260509123604 67 152 0.9 6.1 0.00 0.00 0.00 48 1015.6
20260509123103 67 186 2.6 6.1 0.00 0.00 0.00 47 1015.6
20260509122603 67 117 0.9 2.6 0.00 0.00 0.00 50 1015.9
20260509122104 67 239 2.6 7.8 0.00 0.00 0.00 50 1015.9
20260509121603 67 98 2.6 4.3 0.00 0.00 0.00 50 1015.9
20260509121103 67 100 4.3 6.1 0.00 0.00 0.00 51 1015.9
20260509120603 66 80 3.5 5.2 0.00 0.00 0.00 49 1015.9
20260509120103 66 257 0.9 5.2 0.00 0.00 0.00 49 1016.3
20260509115604 67 69 2.6 7.0 0.00 0.00 0.00 50 1015.9
20260509115104 67 158 1.7 5.2 0.00 0.00 0.00 51 1016.3
20260509114603 68 160 0.9 6.1 0.00 0.00 0.00 50 1016.3
20260509114103 68 226 0.0 5.2 0.00 0.00 0.00 53 1016.3